Location: Bullfrog
(37.5121°N, 110.7330°W)
Time: 15:53:37
(UTC-06:00)

N. Korean satellite - Pass Details

Date: 29 September 2021
Orbit: 450 x 495 km, 97.3° (Epoch: 21 October)

Event Time Altitude Azimuth Distance (km) Brightness Sun altitude
Rises 06:39:01 0° 10° (N) 2,541 10.4 -8.4°
Reaches altitude 10° 06:41:05 10° 10° (N) 1,665 9.5 -8.0°
Maximum altitude 06:44:39 85° 286° (WNW) 493 6.5 -7.2°
Drops below altitude 10° 06:48:16 10° 194° (SSW) 1,673 9.1 -6.5°
Sets 06:50:20 0° 194° (SSW) 2,554 10.1 -6.1°
